User: anonymous   Login
Location: Kershaw
(34.5481°N, 80.5823°W)
Time: 11:55:25
(UTC+00:00)
Language:

Transit 2A - Orbit

View from above orbital plane
View from above orbital plane
View from above satellite
View from above satellite

Ground track
Ground track

The orbit data is extracted from the following two-line orbital elements,

1    45U 60007A   22278.24897456  .00000227  00000-0  84497-4 0  9995
2    45  66.6953 327.5692 0248050  63.5665 299.0657 14.33912007243096
Epoch (UTC): 05 October 2022 05:58:31
Eccentricity: 0.0248050
inclination: 66.6953°
perigee height: 601 km
apogee height: 956 km
right ascension of ascending node: 327.5692°
argument of perigee: 63.5665°
revolutions per day: 14.33912007
mean anomaly at epoch: 299.0657°
orbit number at epoch: 24309

The dashed part of the orbit path shows where the satellite is in the earth's shadow,  

DLR